Location: New Greens
(51.7702°N, 0.3379°W)
Time: 01:00:05
(UTC+00:00)

X-37B - Visible Passes

Search period start: 14 June 2021 00:00
Search period end: 24 June 2021 00:00
Orbit: 386 x 389 km, 45.0° (Epoch: 10 June)

Date Brightness Start Highest point End Pass type
(mag) Time Alt. Az. Time Alt. Az. Time Alt. Az.
15 Jun 2.3 02:04:19 15° S 02:05:25 18° SSE 02:07:38 10° ESE visible
16 Jun 2.9 01:08:13 12° SE 01:08:13 12° SE 01:08:59 10° SE visible
16 Jun 1.9 02:40:40 10° SW 02:43:17 23° S 02:45:54 10° ESE visible
17 Jun 2.0 01:44:24 20° S 01:45:06 21° S 01:47:35 10° ESE visible
18 Jun 2.8 00:48:20 14° SE 00:48:20 14° SE 00:49:11 10° ESE visible
18 Jun 1.8 02:20:36 11° SW 02:23:00 24° S 02:25:38 10° SE visible
19 Jun 1.8 01:24:37 23° S 01:24:48 23° S 01:27:25 10° ESE visible
20 Jun 3.0 00:28:47 12° ESE 00:28:47 12° ESE 00:29:08 10° ESE visible
20 Jun 1.9 02:01:04 15° SW 02:02:43 22° S 02:05:16 10° SE visible
21 Jun 2.1 01:05:32 20° SSE 01:05:32 20° SSE 01:07:10 10° SE visible
21 Jun 2.3 02:38:35 10° WSW 02:40:32 15° SSW 02:42:28 10° SSE visible
22 Jun 2.2 01:43:04 18° S 01:43:04 18° S 01:44:45 10° SE visible
23 Jun 2.1 22:07:45 10° SSW 22:09:59 18° SSE 22:10:09 18° SSE visible
